Regional Weather Roundup
Issued by NWS

Home | Current Version | Previous Version | Graphics & Text | Print | Product List | Glossary On
Versions: 1 2 3 4 5 6 7 8 9 10 11 12 13 14 15 16 17 18 19 20 21 22 23 24 25 26 27 28 29 30 31 32 33 34 35 36 37 38 39 40 41 42 43 44 45 46 47 48 49 50
000
ASUS43 KMPX 082010
RWRMN
WEATHER ROUNDUP FOR MINNESOTA
NATIONAL WEATHER SERVICE TWIN CITIES/CHANHASSEN MN
200 PM CST THU DEC 08 2016


NOTE: "FAIR" INDICATES FEW OR NO CLOUDS BELOW 12,000 FEET WITH NO
SIGNIFICANT WEATHER AND/OR OBSTRUCTIONS TO VISIBILITY. N/A MEANS
CURRENT SKY AND/OR WEATHER CONDITIONS ARE NOT AVAILABLE.

MNZ060>063-068>070-082100-
   Twin Cities Metro

CITY           SKY/WX    TMP DP  RH WIND       PRES   REMARKS
TWIN CITIES    FLURRIES  23  12  62 NW16      30.39R WCI  10
ST PAUL        CLOUDY    24  15  68 NW14      30.40R WCI  12
CRYSTAL        FLURRIES  23  11  60 NW15G23   30.39R WCI  10
BLAINE         FLURRIES  25  16  68 NW17      30.38R WCI  11
LAKEVILLE      CLOUDY    21  16  79 NW17      30.38R WCI   7
EDEN PRAIRIE   LGT SNOW  23  14  68 NW15G22   30.39R WCI  10
SOUTH ST PAUL  FLURRIES  24  15  68 NW12G17   30.39R WCI  13
LAKE ELMO      CLOUDY    25  18  74 W12       30.38R WCI  14
$$
MNZ001>005-007-008-013>017-022>024-027-028-082100-
   Northwest Minnesota

CITY           SKY/WX    TMP DP  RH WIND       PRES   REMARKS
BEMIDJI        FLURRIES  19  14  82 NW10      30.39S WCI   7
HALLOCK        CLOUDY    16  10  79 NW15G21   30.52S WCI   1
ROSEAU         LGT SNOW  18  12  79 W9        30.45S WCI   6
WARROAD        CLOUDY    18  10  73 NW13      30.44S WCI   4
THIEF RVR FALL PTSUNNY   17  12  80 NW13      30.49R WCI   4
CROOKSTON      CLOUDY    16  12  86 N18G25    30.53R FOG     WCI  -1
FOSSTON        LGT SNOW  18  12  79 NW13      30.45R WCI   4
DETROIT LAKES  LGT SNOW  16  12  86 NW17G26   30.46S WCI   0
MOORHEAD       MIX PCPN  16  10  79 NW17      30.54R WCI   0
PARK RAPIDS    MIX PCPN  18   9  68 NW12      30.39R WCI   5
$$
MNZ006-009>011-018-025>026-082100-
   North Central Minnesota

CITY           SKY/WX    TMP DP  RH WIND       PRES   REMARKS
BAUDETTE       CLOUDY    19   7  59 NW20G29   30.39R WCI   3
FLAG ISLAND    CLOUDY    16   9  73 NW28      30.42R WCI  -4
INTL FALLS     CLOUDY    20  10  65 N14       30.34R WCI   7
WASKISH        FLURRIES  19  16  86 NW14      30.39R WCI   6
BIG FORK       FLURRIES  21  14  73 NW8       30.34R WCI  12
LONGVILLE      LGT SNOW  21  14  73 NW7       30.37R WCI  13
GRAND RAPIDS   FLURRIES  22  15  75 N18       30.34S WCI   7
CRANE LAKE     CLOUDY    19  12  73 NW8G16    30.32R WCI   9
ORR            CLOUDY    19  10  68 NW10G17   30.27R WCI   8
COOK           FLURRIES  21  12  68 W8        30.29S WCI  12
$$
MNZ012-019>021-037-082100-
   Northeast Minnesota

CITY           SKY/WX    TMP DP  RH WIND       PRES   REMARKS
DULUTH         CLOUDY    22  15  75 NW15G22   30.26R WCI   9
ELY            LGT SNOW  19  12  73 N9G18     30.25R WCI   9
HIBBING        CLOUDY    19  13  77 NW18      30.30R WCI   4
EVELETH        FLURRIES  22  13  67 NW14G20   30.29R WCI  10
DULUTH HARBOR  CLOUDY    27  18  69 NW18G24   30.33R WCI  13
TWO HARBORS    MOSUNNY   27  18  69 NW8       30.24R WCI  18
SILVER BAY     PTSUNNY   25  16  68 NW8       30.23R WCI  16
GRAND MARAIS     N/A     26  16  65 CALM      30.24R
G MARAIS ARPRT LGT SNOW  18  10  73 NW10G20   30.15R VSB 1   WCI   6
$$
MNZ029>031-032-039>041-046>048-054>057-064-082100-
   West Central Minnesota

CITY           SKY/WX    TMP DP  RH WIND       PRES   REMARKS
FERGUS FALLS   LGT SNOW  12   9  85 NW23      30.54S WCI  -7
WHEATON        FLURRIES  16  10  79 NW20G26   30.56R WCI  -1
MORRIS         LGT SNOW  16  10  79 NW21G28   30.49R WCI  -2
ALEXANDRIA     LGT SNOW  15   9  76 NW20G26   30.44R WCI  -2
ELBOW LAKE     LGT SNOW  13  10  85 NW22      30.49S WCI  -5
WADENA         LGT SNOW  16   9  73 NW17      30.42R WCI   0
GLENWOOD       FLURRIES  14  10  85 NW23      30.44R WCI  -5
APPLETON       FLURRIES  18  10  73 NW21G26   30.51S WCI   1
BENSON         LGT SNOW  18   9  68 N21G28    30.49S WCI   1
ORTONVILLE     CLOUDY    16   7  67 NW15      30.52S WCI   1
MADISON        FLURRIES  19  12  73 NW18      30.52F WCI   4
WILLMAR        LGT SNOW  18  12  79 NW28      30.47S WCI  -1
$$
MNZ033>034-036-042>043-049>051-058-059-082100-
   Central Minnesota

CITY           SKY/WX    TMP DP  RH WIND       PRES   REMARKS
ST CLOUD       CLOUDY    20  12  71 NW14G24   30.40R WCI   7
PAYNESVILLE    FLURRIES  18  11  75 W20       30.44R WCI   2
AITKIN         FLURRIES  25  12  58 NW9       30.34R WCI  15
PINE RIVER     FLURRIES  19  12  73 NW10G16   30.40R WCI   8
BRAINERD       CLOUDY    20  11  68 NW14      30.38R WCI   7
STAPLES        FLURRIES  16  10  79 NW15      30.41R WCI   1
LONG PRAIRIE   FLURRIES  19  10  68 W17G23    30.41S WCI   4
LITTLE FALLS   FLURRIES  19  10  68 NW10G20   30.41R WCI   8
LITCHFIELD     FLURRIES  19  12  73 NW18      30.44R WCI   4
BUFFALO        FLURRIES  22  13  69 NW10G17   30.41S WCI  11
MAPLE LAKE     FLURRIES  23  15  73 NW10G17   30.41R WCI  12
HUTCHINSON     FLURRIES  20  14  76 W20G26    30.44R WCI   5
$$
MNZ037-044-045-052-053-082100-
   East Central Minnesota

CITY           SKY/WX    TMP DP  RH WIND       PRES   REMARKS
PRINCETON      FLURRIES  23  16  74 W10       30.38R WCI  12
MORA           MOSUNNY   25  16  68 NW15      30.37R WCI  12
CAMBRIDGE      CLOUDY    25  12  58 NW12      30.35S WCI  14
RUSH CITY      CLOUDY    25  16  68 NW13G20   30.35S WCI  13
MOOSE LAKE     CLOUDY    23  14  68 NW8G22    30.31R WCI  14
HINCKLEY       CLOUDY    27  16  63 NW13      30.34R WCI  16
CLOQUET        CLOUDY    21  14  73 NW15G24   30.29R WCI   8
MCGREGOR       CLOUDY    23  16  74 NW10G20   30.34R WCI  12
$$
MNZ071>073-080-081-089-090-097-098-082100-
   Southwest Minnesota

CITY           SKY/WX    TMP DP  RH WIND       PRES   REMARKS
MONTEVIDEO     CLOUDY    19  10  68 N18G25    30.52R WCI   4
GRANITE FALLS  FLURRIES  20  13  73 W21G28    30.52S WCI   4
CANBY          PTSUNNY   19  10  66 NW21G26   30.53S WCI   3
MARSHALL       FLURRIES  18   9  68 NW24      30.50S WCI   0
REDWOOD FALLS  CLOUDY    19   9  65 NW16G25   30.48S WCI   4
OLIVIA         FLURRIES  19  12  73 NW18G31   30.47R WCI   4
PIPESTONE      CLOUDY    16   9  73 NW18G25   30.49S WCI  -1
WINDOM         FLURRIES  19  10  68 NW21      30.46S WCI   3
WORTHINGTON    PTSUNNY   18  10  71 NW22G30   30.48R WCI   1
JACKSON        CLOUDY    19   9  63 NW18G30   30.46S WCI   4
TRACY          FLURRIES  19  12  76 NW18      30.50R WCI   3
SLAYTON        CLOUDY    17  10  74 NW21G26   30.48R WCI   0
$$
MNZ065>067-074>077-082>085-091>093-082100-
   South Central Minnesota

CITY           SKY/WX    TMP DP  RH WIND       PRES   REMARKS
MANKATO        FLURRIES  18  12  77 NW21G26   30.44R WCI   1
NEW ULM        CLOUDY    18  10  73 NW17G24   30.46R WCI   2
ST JAMES       CLOUDY    19  12  73 NW21G31   30.47S WCI   3
FAIRMONT       CLOUDY    20  11  68 NW24G30   30.46R WCI   3
GLENCOE        FLURRIES  22  15  76 NW18G26   30.43R WCI   7
OWATONNA       LGT SNOW  21  14  73 W16       30.39S WCI   7
WASECA         LGT SNOW  19  14  79 W17G23    30.43R WCI   4
ALBERT LEA     LGT SNOW  21  16  79 NW14G20   30.40S WCI   8
$$
MNZ078>079-086>088-094>096-082100-
   Southeast Minnesota

CITY           SKY/WX    TMP DP  RH WIND       PRES   REMARKS
ROCHESTER      FLURRIES  21  16  81 NW18      30.35R WCI   6
RED WING       CLOUDY    25  14  63 NW13G20   30.36R WCI  13
STANTON        CLOUDY    24  17  72 NW18      30.38R WCI  11
DODGE CENTER   FLURRIES  19  16  86 W17G24    30.36R WCI   4
WINONA         FLURRIES  27  19  74 NW10G18   30.36R WCI  17
AUSTIN         LGT SNOW  18  12  79 NW18G25   30.39R WCI   2
PRESTON        LGT SNOW  20  15  81 NW18      30.35R WCI   5
$$
ABBREVIATIONS USED IN REMARKS
   TC - TEMPERATURES IN CELSIUS
  WCI - WIND CHILL INDEX
   HX - HEAT INDEX
  VSB - VISIBILITY
$$




USA.gov is the U.S. government's official web portal to all federal, state and local government web resources and services.